{"data":{"norad_id":66744,"intl_designator":"2025-276CG","name":"AC1-001","alt_names":[],"object_type":"PAYLOAD","status":"ACTIVE","operator":null,"country":"UK","launch_date":"2025-11-28","launch_site_code":"AFWTR","launch_vehicle":null,"mission":null,"orbit_class":"UNKNOWN","rcs_meters":null,"size_class":null,"mass_kg":null,"dimensions":null,"purposes":[],"wikipedia_slug":null,"has_3d_model":false,"image_url":null,"decayed_at":null,"tle_current":{"epoch":"2026-05-24T18:37:14.790432Z","epoch_age_seconds":88252,"freshness":"FRESH","line1":"1 66744U 25276CG  26144.77586563  .00001857  00000+0  94015-4 0  9996","line2":"2 66744  97.4211 218.5488 0004520  87.8940 272.2812 15.18224402 26850","mean_motion":15.18224402,"eccentricity":0.000452,"inclination_deg":97.4211,"raan_deg":218.5488,"arg_perigee_deg":87.894,"mean_anomaly_deg":272.2812,"bstar":9.4015e-5,"rev_number":2685,"period_min":94.847638998757,"perigee_km":508.09289700627,"apogee_km":514.32086387418,"semimajor_km":6889.3438804402,"source":"CELESTRAK","updated_at":"2026-05-25T13:38:06.450032Z"}}}